TimeEST,TemperatureF,Dew PointF,Humidity,Sea Level PressureIn,VisibilityMPH,Wind Direction,Wind SpeedMPH,Gust SpeedMPH,PrecipitationIn,Events,Conditions,WindDirDegrees,DateUTC
12:54 AM,39.9,36.0,86,29.87,10.0,Calm,Calm,-,N/A,,Clear,0,2013-12-03 05:54:00
1:54 AM,37.9,35.1,89,29.88,-9999.0,West,4.6,-,N/A,,Clear,270,2013-12-03 06:54:00
2:54 AM,41.0,37.0,86,29.89,-9999.0,Calm,Calm,-,N/A,,Clear,0,2013-12-03 07:54:00
3:54 AM,37.0,35.1,93,29.90,-9999.0,WSW,5.8,-,N/A,,Clear,250,2013-12-03 08:54:00
4:54 AM,39.0,35.1,86,29.91,10.0,Calm,Calm,-,N/A,,Clear,0,2013-12-03 09:54:00
5:54 AM,37.9,34.0,86,29.92,10.0,Calm,Calm,-,N/A,,Clear,0,2013-12-03 10:54:00
6:54 AM,35.1,33.1,92,29.95,6.0,WSW,4.6,-,N/A,,Partly Cloudy,240,2013-12-03 11:54:00
7:54 AM,36.0,34.0,93,29.98,6.0,ESE,3.5,-,N/A,,Mostly Cloudy,120,2013-12-03 12:54:00
8:54 AM,43.0,39.9,89,29.99,7.0,Calm,Calm,-,N/A,,Mostly Cloudy,0,2013-12-03 13:54:00
9:54 AM,52.0,39.9,63,29.99,7.0,Calm,Calm,-,N/A,,Mostly Cloudy,0,2013-12-03 14:54:00
10:54 AM,59.0,34.0,39,29.99,10.0,Calm,Calm,-,N/A,,Clear,0,2013-12-03 15:54:00
11:54 AM,61.0,35.1,38,29.98,10.0,Calm,Calm,-,N/A,,Scattered Clouds,0,2013-12-03 16:54:00
12:54 PM,62.1,36.0,38,29.96,10.0,Variable,3.5,-,N/A,,Scattered Clouds,0,2013-12-03 17:54:00
1:54 PM,61.0,37.9,42,29.96,10.0,SW,8.1,-,N/A,,Scattered Clouds,220,2013-12-03 18:54:00
2:54 PM,59.0,37.9,46,29.96,10.0,South,6.9,-,N/A,,Mostly Cloudy,190,2013-12-03 19:54:00
3:54 PM,57.0,39.9,53,29.98,10.0,South,3.5,-,N/A,,Mostly Cloudy,180,2013-12-03 20:54:00
4:54 PM,55.0,39.0,55,30.00,10.0,Calm,Calm,-,N/A,,Mostly Cloudy,0,2013-12-03 21:54:00
5:54 PM,53.1,42.1,66,30.01,10.0,Calm,Calm,-,N/A,,Overcast,0,2013-12-03 22:54:00
6:54 PM,50.0,43.0,77,30.02,10.0,ESE,3.5,-,N/A,,Mostly Cloudy,120,2013-12-03 23:54:00
7:54 PM,46.9,42.1,83,30.03,10.0,Calm,Calm,-,N/A,,Clear,0,2013-12-04 00:54:00
8:54 PM,48.0,42.1,80,30.03,10.0,ESE,3.5,-,N/A,,Mostly Cloudy,120,2013-12-04 01:54:00
9:54 PM,46.9,42.1,83,30.04,10.0,Calm,Calm,-,N/A,,Overcast,0,2013-12-04 02:54:00
10:54 PM,48.9,43.0,80,30.03,10.0,ESE,5.8,-,N/A,,Overcast,120,2013-12-04 03:54:00
11:54 PM,50.0,44.1,80,30.04,10.0,Calm,Calm,-,N/A,,Overcast,0,2013-12-04 04:54:00